AEE0760 LGAV-ESSA

Flight info

Callsign AEE0760
Flight time 3h 27m
Altitude 38000
Route KRO UT162 KOROS UN133 GIKAS DCT ATFIR DCT LOMOS DCT MEGIK DCT KEKED DCT LENOV DCT EVINA DCT ADOXO DCT KARTI DCT PENOR DCT ARMOD/N0441F390 Z228 NILUG
Aircraft A20N/M-SDE2E3FGHIRWXY/LB1

Departure

Time 2026-05-04 09:34
Airport Athens Eleftherios Venizelos International Airport (LGAV)

Arrival

Time 2026-05-04 13:01
Airport Stockholm-Arlanda Airport (ESSA)
Time Latitude Longitude Altitude Speed Heading
2026-05-04 09:18 37.94142 23.95095 302 ft 0 kts 39°
2026-05-04 09:25 37.94137 23.95090 300 ft 2 kts 39°
2026-05-04 09:25 37.94118 23.95070 304 ft 4 kts 39°
2026-05-04 09:26 37.94097 23.95050 301 ft 2 kts 39°
2026-05-04 09:26 37.94084 23.95037 302 ft 2 kts 57°
2026-05-04 09:26 37.94082 23.95024 302 ft 0 kts 123°
2026-05-04 09:28 37.94078 23.95033 301 ft 5 kts 123°
2026-05-04 09:28 37.94042 23.95098 300 ft 12 kts 125°
2026-05-04 09:28 37.93982 23.95197 301 ft 16 kts 128°
2026-05-04 09:28 37.93918 23.95308 302 ft 16 kts 126°
2026-05-04 09:29 37.93857 23.95407 300 ft 12 kts 127°
2026-05-04 09:29 37.93780 23.95405 296 ft 13 kts 216°
2026-05-04 09:29 37.93699 23.95328 301 ft 16 kts 217°
2026-05-04 09:29 37.93594 23.95228 299 ft 21 kts 217°
2026-05-04 09:30 37.93469 23.95109 300 ft 24 kts 216°
2026-05-04 09:30 37.93328 23.94976 300 ft 26 kts 217°
2026-05-04 09:30 37.93182 23.94838 302 ft 24 kts 217°
2026-05-04 09:30 37.93045 23.94707 300 ft 23 kts 216°
2026-05-04 09:31 37.92919 23.94587 302 ft 23 kts 217°
2026-05-04 09:31 37.92801 23.94475 303 ft 18 kts 217°
2026-05-04 09:31 37.92716 23.94395 304 ft 14 kts 216°
2026-05-04 09:31 37.92631 23.94317 303 ft 16 kts 216°
2026-05-04 09:32 37.92555 23.94296 305 ft 12 kts 143°
2026-05-04 09:32 37.92507 23.94374 307 ft 11 kts 126°
2026-05-04 09:34 37.96109 23.97931 2400 ft 174 kts 34°
2026-05-04 09:34 37.97126 23.98912 2937 ft 193 kts 34°
2026-05-04 09:34 37.98249 23.99992 3511 ft 212 kts 34°
2026-05-04 09:34 37.99611 24.00853 4187 ft 228 kts
2026-05-04 09:35 38.01172 24.00635 5229 ft 229 kts 339°
2026-05-04 09:35 38.02688 23.99924 6010 ft 238 kts 341°
2026-05-04 09:35 38.04332 23.99274 6615 ft 254 kts 342°
2026-05-04 09:35 38.06034 23.98634 7529 ft 256 kts 343°
2026-05-04 09:37 38.19115 23.93444 12281 ft 320 kts 342°
2026-05-04 09:37 38.21255 23.92582 13052 ft 324 kts 342°
2026-05-04 09:38 38.23394 23.91720 13808 ft 329 kts 342°
2026-05-04 09:38 38.25573 23.90842 14500 ft 333 kts 342°
2026-05-04 09:38 38.27796 23.89945 15187 ft 336 kts 342°
2026-05-04 09:38 38.30050 23.89035 15888 ft 340 kts 342°
2026-05-04 09:39 38.32323 23.88116 16550 ft 344 kts 342°
2026-05-04 09:39 38.34621 23.87187 17190 ft 348 kts 342°
2026-05-04 09:39 38.36927 23.86255 17815 ft 353 kts 342°
2026-05-04 09:39 38.39298 23.85295 18443 ft 357 kts 342°
2026-05-04 09:40 38.41679 23.84331 19015 ft 360 kts 342°
2026-05-04 09:40 38.44052 23.83369 19541 ft 364 kts 342°
2026-05-04 09:40 38.46486 23.82381 20091 ft 368 kts 342°
2026-05-04 09:40 38.48945 23.81384 20642 ft 372 kts 342°
2026-05-04 09:41 38.51421 23.80380 21194 ft 375 kts 342°
2026-05-04 09:42 38.69340 23.73079 24799 ft 395 kts 342°
2026-05-04 09:43 38.71951 23.72012 25231 ft 397 kts 342°
2026-05-04 09:43 38.74590 23.70933 25731 ft 397 kts 342°
2026-05-04 09:43 38.77228 23.69854 26264 ft 397 kts 342°
2026-05-04 09:43 38.79865 23.68773 26737 ft 398 kts 342°
2026-05-04 09:44 38.82462 23.67709 27181 ft 399 kts 342°
2026-05-04 09:44 38.85111 23.66622 27620 ft 399 kts 342°
2026-05-04 09:44 38.87760 23.65535 28055 ft 400 kts 342°
2026-05-04 09:46 39.06454 23.57836 30597 ft 408 kts 342°
2026-05-04 09:46 39.09166 23.56716 30841 ft 410 kts 342°
2026-05-04 09:46 39.11899 23.55586 31093 ft 413 kts 342°
2026-05-04 09:47 39.14642 23.54451 31374 ft 414 kts 342°
2026-05-04 09:47 39.17389 23.53313 31696 ft 414 kts 342°
2026-05-04 09:49 39.36536 23.45357 33899 ft 413 kts 342°
2026-05-04 09:49 39.39275 23.44215 34178 ft 413 kts 342°
2026-05-04 09:49 39.42019 23.43071 34415 ft 413 kts 342°
2026-05-04 09:51 39.58475 23.36185 35607 ft 416 kts 342°
2026-05-04 09:51 39.61231 23.35029 35787 ft 416 kts 342°
2026-05-04 09:51 39.63991 23.33869 35955 ft 417 kts 342°
2026-05-04 09:51 39.66753 23.32708 36126 ft 417 kts 342°
2026-05-04 09:52 39.69526 23.31542 36292 ft 418 kts 342°
2026-05-04 09:52 39.72261 23.30390 36450 ft 418 kts 342°
2026-05-04 09:52 39.75033 23.29222 36603 ft 419 kts 342°
2026-05-04 09:52 39.77814 23.28049 36766 ft 419 kts 342°
2026-05-04 09:53 39.80591 23.26877 36906 ft 420 kts 342°
2026-05-04 09:53 39.83371 23.25702 37059 ft 420 kts 342°
2026-05-04 09:53 39.86160 23.24523 37213 ft 420 kts 342°
2026-05-04 09:53 39.88912 23.23358 37347 ft 421 kts 342°
2026-05-04 09:54 39.91694 23.22180 37511 ft 420 kts 342°
2026-05-04 09:54 39.94451 23.21011 37947 ft 412 kts 342°
2026-05-04 09:54 39.97165 23.19860 38197 ft 411 kts 342°
2026-05-04 09:55 40.02658 23.17526 38171 ft 417 kts 342°
2026-05-04 09:55 40.08183 23.15175 38169 ft 422 kts 342°
2026-05-04 09:56 40.13777 23.12790 38168 ft 421 kts 342°
2026-05-04 09:56 40.19324 23.10422 38170 ft 422 kts 342°
2026-05-04 09:57 40.24907 23.08033 38174 ft 422 kts 342°
2026-05-04 09:57 40.30490 23.05641 38175 ft 422 kts 342°
2026-05-04 09:58 40.36075 23.03244 38180 ft 422 kts 342°
2026-05-04 09:58 40.41675 23.00837 38182 ft 423 kts 342°
2026-05-04 10:00 40.62758 22.87166 38185 ft 424 kts 333°
2026-05-04 10:04 40.99122 22.61497 38168 ft 422 kts 333°
2026-05-04 10:04 41.04296 22.57818 38168 ft 422 kts 333°
2026-05-04 10:05 41.09462 22.54139 38160 ft 421 kts 333°
2026-05-04 10:05 41.14399 22.50039 38161 ft 422 kts 325°
2026-05-04 10:06 41.18987 22.45168 38153 ft 422 kts 323°
2026-05-04 10:06 41.23577 22.40296 38164 ft 421 kts 323°
2026-05-04 10:08 41.39506 22.23237 38154 ft 419 kts 323°
2026-05-04 10:08 41.44052 22.18343 38155 ft 419 kts 323°
2026-05-04 10:09 41.47813 22.14289 38154 ft 419 kts 323°
2026-05-04 10:09 41.53080 22.08600 38154 ft 419 kts 323°
2026-05-04 10:10 41.56784 22.04592 38154 ft 419 kts 323°
2026-05-04 10:10 41.61275 21.99723 38156 ft 418 kts 323°
2026-05-04 10:11 41.65721 21.94895 38161 ft 418 kts 323°
2026-05-04 10:11 41.70239 21.89979 38161 ft 418 kts 323°
2026-05-04 10:12 41.74759 21.85052 38162 ft 419 kts 323°
2026-05-04 10:12 41.79281 21.80114 38162 ft 419 kts 323°
2026-05-04 10:13 41.83769 21.75204 38165 ft 419 kts 323°
2026-05-04 10:13 41.88287 21.70251 38165 ft 419 kts 323°
2026-05-04 10:14 41.92795 21.65299 38155 ft 417 kts 323°
2026-05-04 10:16 42.10708 21.45535 38162 ft 416 kts 323°
2026-05-04 10:16 42.15417 21.41163 38159 ft 412 kts 334°
2026-05-04 10:17 42.20646 21.38075 38165 ft 409 kts 343°
2026-05-04 10:19 42.42628 21.29885 38180 ft 410 kts 346°
2026-05-04 10:19 42.48088 21.27862 38184 ft 409 kts 346°
2026-05-04 10:20 42.53591 21.25819 38190 ft 409 kts 346°
2026-05-04 10:20 42.59093 21.23772 38186 ft 409 kts 346°
2026-05-04 10:21 42.64590 21.21724 38185 ft 409 kts 346°
2026-05-04 10:21 42.70036 21.19691 38178 ft 408 kts 346°
2026-05-04 10:22 42.78251 21.16618 38181 ft 408 kts 346°
2026-05-04 10:23 42.83727 21.14564 38173 ft 407 kts 346°
2026-05-04 10:25 43.05632 21.06312 38178 ft 409 kts 346°
2026-05-04 10:25 43.11071 21.04254 38188 ft 408 kts 347°
2026-05-04 10:26 43.16623 21.02578 38185 ft 408 kts 349°
2026-05-04 10:26 43.22183 21.00934 38192 ft 409 kts 349°
2026-05-04 10:27 43.27747 20.99286 38188 ft 409 kts 349°
2026-05-04 10:27 43.33320 20.97636 38192 ft 410 kts 349°
2026-05-04 10:28 43.38903 20.95979 38190 ft 410 kts 349°
2026-05-04 10:28 43.44452 20.94329 38196 ft 410 kts 349°
2026-05-04 10:29 43.50041 20.92664 38185 ft 410 kts 349°
2026-05-04 10:29 43.55623 20.90997 38193 ft 410 kts 349°
2026-05-04 10:30 43.61208 20.89328 38181 ft 411 kts 349°
2026-05-04 10:30 43.66763 20.87664 38184 ft 411 kts 349°
2026-05-04 10:31 43.72365 20.85982 38182 ft 411 kts 349°
2026-05-04 10:32 43.91959 20.80074 38188 ft 413 kts 349°
2026-05-04 10:33 43.97578 20.78373 38195 ft 413 kts 349°
2026-05-04 10:33 44.03200 20.76668 38191 ft 414 kts 349°
2026-05-04 10:34 44.08832 20.74955 38189 ft 414 kts 349°
2026-05-04 10:34 44.14463 20.73241 38186 ft 414 kts 349°
2026-05-04 10:35 44.20054 20.71535 38179 ft 414 kts 349°
2026-05-04 10:35 44.25654 20.69822 38185 ft 414 kts 349°
2026-05-04 10:36 44.31327 20.68084 38184 ft 414 kts 349°
2026-05-04 10:36 44.36963 20.66354 38181 ft 414 kts 349°
2026-05-04 10:37 44.42593 20.64623 38179 ft 414 kts 349°
2026-05-04 10:37 44.48182 20.62901 38167 ft 414 kts 349°
2026-05-04 10:39 44.67897 20.56798 38170 ft 414 kts 349°
2026-05-04 10:40 44.73489 20.55059 38167 ft 414 kts 349°
2026-05-04 10:40 44.79118 20.53306 38166 ft 414 kts 349°
2026-05-04 10:41 44.84755 20.51547 38163 ft 414 kts 349°
2026-05-04 10:41 44.90395 20.49782 38162 ft 414 kts 349°
2026-05-04 10:42 44.96031 20.48016 38155 ft 414 kts 349°
2026-05-04 10:42 45.01628 20.46258 38157 ft 414 kts 349°
2026-05-04 10:43 45.07261 20.44485 38163 ft 414 kts 349°
2026-05-04 10:45 45.29782 20.37362 38157 ft 415 kts 349°
2026-05-04 10:45 45.35434 20.35566 38160 ft 416 kts 349°
2026-05-04 10:46 45.41087 20.33765 38156 ft 416 kts 349°
2026-05-04 10:46 45.46713 20.31969 38161 ft 416 kts 349°
2026-05-04 10:47 45.52375 20.30158 38157 ft 416 kts 349°
2026-05-04 10:47 45.58030 20.28346 38161 ft 417 kts 349°
2026-05-04 10:49 45.80680 20.21048 38160 ft 417 kts 349°
2026-05-04 10:50 45.86315 20.19223 38153 ft 417 kts 349°
2026-05-04 10:52 46.08990 20.11843 38151 ft 417 kts 349°
2026-05-04 10:52 46.14654 20.09991 38145 ft 417 kts 349°
2026-05-04 10:54 46.37160 20.01831 38145 ft 417 kts 348°
2026-05-04 10:56 46.59674 19.93540 38148 ft 418 kts 348°
2026-05-04 10:57 46.64365 19.91803 38143 ft 418 kts 348°
2026-05-04 10:57 46.70007 19.89710 38144 ft 418 kts 348°
2026-05-04 10:58 46.75652 19.87612 38150 ft 418 kts 348°
2026-05-04 10:58 46.81289 19.85512 38150 ft 418 kts 348°
2026-05-04 10:59 46.86900 19.83417 38156 ft 419 kts 348°
2026-05-04 10:59 46.92556 19.81300 38148 ft 419 kts 348°
2026-05-04 11:00 46.98221 19.79176 38162 ft 419 kts 348°
2026-05-04 11:02 47.20821 19.70656 38137 ft 419 kts 347°
2026-05-04 11:05 47.63356 19.54413 38131 ft 421 kts 347°
2026-05-04 11:06 47.68989 19.52242 38126 ft 421 kts 347°
2026-05-04 11:06 47.74674 19.50045 38126 ft 421 kts 347°
2026-05-04 11:10 48.14131 19.33149 38111 ft 424 kts 336°
2026-05-04 11:12 48.35604 19.18374 38111 ft 425 kts 336°
2026-05-04 11:12 48.40981 19.14640 38111 ft 426 kts 336°
2026-05-04 11:13 48.46327 19.10919 38114 ft 426 kts 336°
2026-05-04 11:13 48.51705 19.07167 38113 ft 426 kts 336°
2026-05-04 11:14 48.52618 19.06529 38110 ft 426 kts 336°
2026-05-04 11:16 48.78589 18.88278 38103 ft 426 kts 336°
2026-05-04 11:16 48.83957 18.84479 38087 ft 425 kts 336°
2026-05-04 11:17 48.89316 18.80677 38086 ft 425 kts 336°
2026-05-04 11:19 49.10692 18.65424 38073 ft 425 kts 335°
2026-05-04 11:19 49.16044 18.61583 38075 ft 424 kts 335°
2026-05-04 11:20 49.21398 18.57730 38075 ft 424 kts 335°
2026-05-04 11:20 49.26699 18.53907 38077 ft 424 kts 335°
2026-05-04 11:22 49.48021 18.38440 38043 ft 424 kts 335°
2026-05-04 11:23 49.53364 18.34541 38045 ft 424 kts 335°
2026-05-04 11:25 49.71990 18.20874 38048 ft 424 kts 334°
2026-05-04 11:25 49.77323 18.16940 38050 ft 424 kts 334°
2026-05-04 11:27 50.01803 18.00589 38015 ft 438 kts 343°
2026-05-04 11:28 50.07830 17.99025 38006 ft 440 kts 353°
2026-05-04 11:28 50.13945 17.98272 38013 ft 440 kts 352°
2026-05-04 11:29 50.20018 17.97490 38004 ft 441 kts 353°
2026-05-04 11:29 50.26141 17.96724 38005 ft 440 kts 353°
2026-05-04 11:33 50.68986 17.91366 37986 ft 442 kts 352°
2026-05-04 11:33 50.75130 17.90590 37988 ft 442 kts 352°
2026-05-04 11:34 50.81225 17.89819 37986 ft 442 kts 352°
2026-05-04 11:34 50.87365 17.89039 37983 ft 442 kts 352°
2026-05-04 11:35 50.93498 17.88258 37980 ft 442 kts 352°
2026-05-04 11:35 50.99650 17.87473 37982 ft 443 kts 352°
2026-05-04 11:36 51.05790 17.86687 37985 ft 443 kts 352°
2026-05-04 11:36 51.11915 17.85902 37982 ft 443 kts 352°
2026-05-04 11:37 51.18074 17.85108 37985 ft 444 kts 352°
2026-05-04 11:37 51.24211 17.84318 37985 ft 444 kts 352°
2026-05-04 11:38 51.30385 17.83519 37990 ft 445 kts 352°
2026-05-04 11:38 51.36523 17.82723 37987 ft 445 kts 352°
2026-05-04 11:39 51.42710 17.81918 37985 ft 445 kts 352°
2026-05-04 11:41 51.64334 17.79089 37981 ft 446 kts 352°
2026-05-04 11:41 51.70518 17.78277 37978 ft 446 kts 352°
2026-05-04 11:42 51.76667 17.77465 37977 ft 446 kts 352°
2026-05-04 11:42 51.82869 17.76644 37972 ft 446 kts 352°
2026-05-04 11:43 51.89074 17.75821 37972 ft 446 kts 352°
2026-05-04 11:43 51.95230 17.75002 37968 ft 446 kts 352°
2026-05-04 11:44 52.01430 17.74175 37968 ft 447 kts 352°
2026-05-04 11:44 52.07634 17.73345 37968 ft 447 kts 351°
2026-05-04 11:45 52.13840 17.72513 37965 ft 447 kts 351°
2026-05-04 11:45 52.20012 17.71682 37967 ft 447 kts 351°
2026-05-04 11:46 52.26231 17.70842 37964 ft 447 kts 351°
2026-05-04 11:46 52.32445 17.70002 37965 ft 448 kts 351°
2026-05-04 11:47 52.37606 17.69302 37965 ft 448 kts 351°
2026-05-04 11:47 52.44835 17.68319 37968 ft 448 kts 351°
2026-05-04 11:48 52.50042 17.67609 37966 ft 448 kts 351°
2026-05-04 11:48 52.56221 17.66764 37962 ft 448 kts 351°
2026-05-04 11:49 52.62446 17.65910 37963 ft 448 kts 351°
2026-05-04 11:49 52.68673 17.65054 37960 ft 448 kts 351°
2026-05-04 11:50 52.74897 17.64196 37950 ft 448 kts 351°
2026-05-04 11:50 52.81081 17.63340 37958 ft 449 kts 351°
2026-05-04 11:51 52.87312 17.62476 37957 ft 449 kts 351°
2026-05-04 11:51 52.93537 17.61609 37941 ft 449 kts 350°
2026-05-04 11:52 52.99762 17.60740 37938 ft 449 kts 350°
2026-05-04 11:52 53.05994 17.59869 37945 ft 448 kts 350°
2026-05-04 11:53 53.12177 17.59002 37940 ft 448 kts 350°
2026-05-04 11:53 53.18403 17.58125 37943 ft 448 kts 350°
2026-05-04 11:55 53.43239 17.54604 37932 ft 448 kts 350°
2026-05-04 11:56 53.49458 17.53715 37928 ft 448 kts 350°
2026-05-04 11:56 53.55677 17.52825 37924 ft 448 kts 350°
2026-05-04 11:57 53.61907 17.51930 37921 ft 448 kts 350°
2026-05-04 11:57 53.68089 17.51039 37919 ft 449 kts 350°
2026-05-04 11:58 53.74319 17.50139 37920 ft 449 kts 349°
2026-05-04 11:58 53.80466 17.49248 37915 ft 449 kts 349°
2026-05-04 11:59 53.86695 17.48342 37910 ft 449 kts 349°
2026-05-04 11:59 53.92944 17.47431 37909 ft 450 kts 349°
2026-05-04 12:00 53.99191 17.46518 37910 ft 450 kts 349°
2026-05-04 12:00 54.05408 17.45606 37914 ft 451 kts 349°
2026-05-04 12:01 54.11675 17.44684 37915 ft 451 kts 349°
2026-05-04 12:02 54.33606 17.41437 37922 ft 453 kts 349°
2026-05-04 12:03 54.39908 17.40493 37913 ft 454 kts 349°
2026-05-04 12:03 54.46143 17.39316 37923 ft 453 kts 348°
2026-05-04 12:04 54.52400 17.38076 37926 ft 454 kts 348°
2026-05-04 12:04 54.58682 17.36861 37929 ft 454 kts 348°
2026-05-04 12:05 54.64984 17.35649 37926 ft 455 kts 348°
2026-05-04 12:05 54.71281 17.34436 37923 ft 455 kts 348°
2026-05-04 12:06 54.77544 17.33226 37918 ft 456 kts 348°
2026-05-04 12:06 54.83859 17.32001 37914 ft 457 kts 348°
2026-05-04 12:07 54.90189 17.30769 37915 ft 457 kts 348°
2026-05-04 12:07 54.96526 17.29532 37904 ft 458 kts 348°
2026-05-04 12:08 55.02870 17.28290 37908 ft 459 kts 348°
2026-05-04 12:08 55.09196 17.27048 37906 ft 460 kts 348°
2026-05-04 12:09 55.15566 17.25793 37905 ft 461 kts 348°
2026-05-04 12:09 55.21955 17.24529 37901 ft 462 kts 348°
2026-05-04 12:10 55.28299 17.23271 37894 ft 462 kts 348°
2026-05-04 12:10 55.34701 17.21998 37892 ft 463 kts 348°
2026-05-04 12:11 55.41119 17.20717 37886 ft 463 kts 347°
2026-05-04 12:11 55.47486 17.19442 37884 ft 464 kts 347°
2026-05-04 12:12 55.53899 17.18154 37881 ft 464 kts 347°
2026-05-04 12:12 55.60321 17.16859 37878 ft 464 kts 347°
2026-05-04 12:14 55.86451 17.18285 37848 ft 471 kts 357°
2026-05-04 12:15 55.92958 17.18907 37848 ft 471 kts 357°
2026-05-04 12:15 55.99496 17.19535 37843 ft 470 kts 357°
2026-05-04 12:16 56.06051 17.20167 37840 ft 470 kts 357°
2026-05-04 12:16 56.12550 17.20795 37835 ft 470 kts 358°
2026-05-04 12:17 56.19092 17.21430 37829 ft 469 kts 358°
2026-05-04 12:17 56.25625 17.22066 37827 ft 469 kts 358°
2026-05-04 12:18 56.32103 17.22698 37819 ft 469 kts 358°
2026-05-04 12:18 56.38627 17.23337 37815 ft 468 kts 358°
2026-05-04 12:19 56.45114 17.23975 37807 ft 468 kts 358°
2026-05-04 12:19 56.51623 17.24617 37808 ft 468 kts 358°
2026-05-04 12:20 56.58141 17.25262 37807 ft 469 kts 358°
2026-05-04 12:20 56.64660 17.25910 37804 ft 469 kts 358°
2026-05-04 12:21 56.71183 17.26560 37801 ft 469 kts 358°
2026-05-04 12:21 56.77660 17.27208 37798 ft 469 kts 358°
2026-05-04 12:22 56.84181 17.27862 37798 ft 469 kts 358°
2026-05-04 12:22 56.90710 17.28520 37792 ft 469 kts 358°
2026-05-04 12:23 56.97231 17.29178 37785 ft 469 kts 358°
2026-05-04 12:23 57.03748 17.29839 37789 ft 469 kts 358°
2026-05-04 12:24 57.10230 17.30499 37783 ft 469 kts 358°
2026-05-04 12:24 57.16767 17.31167 37782 ft 470 kts 358°
2026-05-04 12:25 57.23298 17.31837 37778 ft 470 kts 358°
2026-05-04 12:25 57.29851 17.32511 37779 ft 470 kts 358°
2026-05-04 12:26 57.36389 17.33186 37780 ft 471 kts 358°
2026-05-04 12:26 57.42903 17.33861 37257 ft 473 kts 358°
2026-05-04 12:27 57.46191 17.34203 36578 ft 475 kts 358°
2026-05-04 12:27 57.49509 17.34619 35730 ft 481 kts
2026-05-04 12:27 57.52841 17.35691 34808 ft 491 kts
2026-05-04 12:27 57.56186 17.37052 34051 ft 492 kts
2026-05-04 12:28 57.59550 17.38382 33191 ft 493 kts
2026-05-04 12:28 57.62911 17.39703 32398 ft 492 kts
2026-05-04 12:28 57.66228 17.41012 31577 ft 492 kts
2026-05-04 12:28 57.69594 17.42348 30840 ft 490 kts
2026-05-04 12:29 57.72910 17.43672 30278 ft 485 kts
2026-05-04 12:29 57.76200 17.44990 29643 ft 481 kts
2026-05-04 12:29 57.79414 17.46280 29019 ft 475 kts
2026-05-04 12:29 57.82629 17.47573 28417 ft 469 kts
2026-05-04 12:30 57.85805 17.48851 27821 ft 463 kts
2026-05-04 12:30 57.88940 17.50115 27160 ft 459 kts
2026-05-04 12:30 57.92068 17.51374 26502 ft 457 kts
2026-05-04 12:30 57.95155 17.52623 25976 ft 451 kts
2026-05-04 12:31 57.98205 17.53859 25417 ft 446 kts
2026-05-04 12:31 58.01234 17.55088 24856 ft 442 kts
2026-05-04 12:31 58.04229 17.56304 24294 ft 438 kts
2026-05-04 12:31 58.07165 17.57499 23738 ft 435 kts
2026-05-04 12:32 58.10115 17.58700 23124 ft 433 kts
2026-05-04 12:32 58.15933 17.61081 22012 ft 422 kts
2026-05-04 12:32 58.18785 17.62250 21460 ft 417 kts
2026-05-04 12:33 58.21619 17.63413 20907 ft 413 kts
2026-05-04 12:33 58.24414 17.64561 20347 ft 409 kts
2026-05-04 12:33 58.27154 17.65688 19811 ft 405 kts
2026-05-04 12:33 58.29900 17.66819 19267 ft 402 kts
2026-05-04 12:34 58.32624 17.67943 18708 ft 399 kts
2026-05-04 12:34 58.35330 17.69061 18159 ft 397 kts
2026-05-04 12:34 58.38021 17.70175 17580 ft 393 kts
2026-05-04 12:34 58.40692 17.71283 17033 ft 389 kts
2026-05-04 12:35 58.43325 17.72378 16493 ft 385 kts
2026-05-04 12:35 58.45059 17.73098 16148 ft 383 kts
2026-05-04 12:35 58.47651 17.74173 15614 ft 379 kts
2026-05-04 12:35 58.51054 17.75589 14924 ft 375 kts
2026-05-04 12:36 58.52780 17.76309 14575 ft 373 kts
2026-05-04 12:36 58.55281 17.77355 14054 ft 371 kts
2026-05-04 12:36 58.57800 17.78410 13551 ft 369 kts
2026-05-04 12:36 58.60309 17.79463 12990 ft 366 kts
2026-05-04 12:37 58.62783 17.80504 12485 ft 362 kts
2026-05-04 12:37 58.65234 17.81536 11985 ft 358 kts
2026-05-04 12:37 58.67657 17.82559 11490 ft 355 kts
2026-05-04 12:37 58.70027 17.83559 11006 ft 352 kts
2026-05-04 12:38 58.72407 17.84565 10513 ft 349 kts
2026-05-04 12:38 58.74763 17.85562 10099 ft 344 kts
2026-05-04 12:38 58.77055 17.86539 9976 ft 331 kts
2026-05-04 12:38 58.79258 17.87484 9839 ft 317 kts
2026-05-04 12:39 58.81362 17.88488 9717 ft 307 kts 13°
2026-05-04 12:39 58.83320 17.90083 9448 ft 304 kts 21°
2026-05-04 12:39 58.85211 17.91891 9039 ft 302 kts 21°
2026-05-04 12:39 58.87093 17.93667 8648 ft 300 kts 21°
2026-05-04 12:40 58.88963 17.95426 8258 ft 297 kts 21°
2026-05-04 12:40 58.90817 17.97171 7895 ft 295 kts 21°
2026-05-04 12:40 58.92661 17.98910 7563 ft 297 kts 21°
2026-05-04 12:40 58.94487 18.00637 7476 ft 293 kts 21°
2026-05-04 12:41 58.96305 18.02367 7196 ft 291 kts 21°
2026-05-04 12:41 58.98116 18.04086 6854 ft 289 kts 21°
2026-05-04 12:41 58.99924 18.05802 6485 ft 287 kts 21°
2026-05-04 12:41 59.01711 18.07500 6129 ft 285 kts 22°
2026-05-04 12:42 59.03484 18.09189 5761 ft 282 kts 22°
2026-05-04 12:42 59.05226 18.10852 5401 ft 280 kts 22°
2026-05-04 12:42 59.06966 18.12514 5116 ft 276 kts 22°
2026-05-04 12:42 59.08711 18.14156 5023 ft 279 kts 19°
2026-05-04 12:43 59.09736 18.14859 5016 ft 275 kts 11°
2026-05-04 12:43 59.11732 18.15450 5017 ft 270 kts 358°
2026-05-04 12:43 59.13616 18.15633 5015 ft 271 kts 359°
2026-05-04 12:43 59.15497 18.15846 5014 ft 271 kts 359°
2026-05-04 12:44 59.17391 18.16068 5010 ft 272 kts 359°
2026-05-04 12:44 59.19275 18.16293 5008 ft 271 kts 359°
2026-05-04 12:44 59.21137 18.16515 5007 ft 271 kts 359°
2026-05-04 12:44 59.23023 18.16738 5004 ft 271 kts 359°
2026-05-04 12:45 59.24901 18.16960 5007 ft 270 kts 359°
2026-05-04 12:45 59.26789 18.17182 5005 ft 272 kts 359°
2026-05-04 12:45 59.28677 18.17405 5005 ft 271 kts 359°
2026-05-04 12:45 59.30559 18.17631 5005 ft 270 kts 359°
2026-05-04 12:46 59.32442 18.17854 5004 ft 270 kts 359°
2026-05-04 12:46 59.34213 18.18064 5007 ft 271 kts 360°
2026-05-04 12:46 59.36078 18.18291 5005 ft 272 kts 359°
2026-05-04 12:46 59.37966 18.18515 5005 ft 272 kts 359°
2026-05-04 12:47 59.39854 18.18740 5002 ft 273 kts 359°
2026-05-04 12:47 59.41748 18.18963 5000 ft 272 kts 359°
2026-05-04 12:47 59.43635 18.19189 5003 ft 271 kts 359°
2026-05-04 12:47 59.45526 18.19413 5005 ft 273 kts 359°
2026-05-04 12:48 59.47416 18.19636 4998 ft 272 kts 359°
2026-05-04 12:48 59.49311 18.19861 5001 ft 271 kts 359°
2026-05-04 12:48 59.51172 18.20086 4999 ft 263 kts 359°
2026-05-04 12:48 59.52949 18.20317 5003 ft 249 kts
2026-05-04 12:49 59.54676 18.20876 5008 ft 255 kts
2026-05-04 12:49 59.56419 18.21517 5001 ft 253 kts
2026-05-04 12:49 59.58145 18.22144 5003 ft 252 kts
2026-05-04 12:49 59.59874 18.22769 4999 ft 253 kts
2026-05-04 12:50 59.61583 18.23386 4999 ft 254 kts
2026-05-04 12:50 59.63317 18.24016 5000 ft 253 kts
2026-05-04 12:50 59.65050 18.24650 4997 ft 253 kts
2026-05-04 12:50 59.66773 18.25280 4999 ft 246 kts
2026-05-04 12:51 59.68434 18.25892 4998 ft 243 kts
2026-05-04 12:51 59.70086 18.26499 4960 ft 238 kts
2026-05-04 12:51 59.71677 18.27086 4886 ft 227 kts
2026-05-04 12:51 59.73200 18.27649 4701 ft 220 kts
2026-05-04 12:52 59.74709 18.28198 4394 ft 219 kts
2026-05-04 12:52 59.76209 18.28745 4109 ft 218 kts
2026-05-04 12:52 59.77687 18.29283 3791 ft 219 kts
2026-05-04 12:52 59.79182 18.29829 3494 ft 218 kts
2026-05-04 12:53 59.80665 18.30375 3244 ft 216 kts
2026-05-04 12:53 59.82138 18.30917 2933 ft 216 kts
2026-05-04 12:53 59.83617 18.31465 2648 ft 215 kts
2026-05-04 12:53 59.85074 18.31794 2496 ft 208 kts 349°
2026-05-04 12:54 59.86401 18.30761 2497 ft 203 kts 316°
2026-05-04 12:54 59.87188 18.28563 2481 ft 194 kts 285°
2026-05-04 12:54 59.87245 18.25950 2478 ft 190 kts 255°
2026-05-04 12:54 59.86665 18.23579 2482 ft 194 kts 239°
2026-05-04 12:55 59.85986 18.21321 2480 ft 193 kts 240°
2026-05-04 12:55 59.85302 18.19024 2485 ft 188 kts 240°
2026-05-04 12:55 59.84671 18.16894 2480 ft 171 kts 240°
2026-05-04 12:55 59.84071 18.14850 2492 ft 172 kts 240°
2026-05-04 12:56 59.83468 18.12796 2488 ft 170 kts 240°
2026-05-04 12:56 59.82870 18.10760 2490 ft 170 kts 240°
2026-05-04 12:56 59.82276 18.08734 2492 ft 172 kts 240°
2026-05-04 12:56 59.81673 18.06692 2494 ft 170 kts 239°
2026-05-04 12:57 59.81075 18.04676 2497 ft 170 kts 240°
2026-05-04 12:57 59.80391 18.02753 2501 ft 172 kts 226°
2026-05-04 12:57 59.79387 18.01469 2503 ft 172 kts 206°
2026-05-04 12:57 59.78228 18.00779 2502 ft 176 kts 197°
2026-05-04 12:58 59.77026 18.00309 2501 ft 177 kts 194°
2026-05-04 12:58 59.75851 17.99877 2437 ft 174 kts 195°
2026-05-04 12:58 59.74685 17.99454 2179 ft 164 kts 195°
2026-05-04 12:58 59.73604 17.99060 1966 ft 153 kts 195°
2026-05-04 12:59 59.72555 17.98675 1763 ft 153 kts 194°
2026-05-04 12:59 59.71499 17.98289 1542 ft 154 kts 194°
2026-05-04 12:59 59.70492 17.97927 1347 ft 145 kts 195°
2026-05-04 12:59 59.69500 17.97562 1148 ft 143 kts 195°
2026-05-04 13:00 59.68553 17.97222 935 ft 132 kts 193°
2026-05-04 13:00 59.67660 17.96896 754 ft 131 kts 194°
2026-05-04 13:00 59.66747 17.96570 590 ft 136 kts 193°
2026-05-04 13:00 59.65784 17.96247 350 ft 142 kts 194°
2026-05-04 13:01 59.64827 17.95882 146 ft 140 kts 193°
2026-05-04 13:01 59.63972 17.95551 111 ft 103 kts 191°
2026-05-04 13:01 59.63435 17.95356 121 ft 57 kts 190°
2026-05-04 13:01 59.63109 17.95225 132 ft 40 kts 194°
2026-05-04 13:02 59.62993 17.95137 136 ft 16 kts 213°
2026-05-04 13:02 59.62916 17.94991 136 ft 15 kts 212°
2026-05-04 13:02 59.62845 17.94845 136 ft 15 kts 274°
2026-05-04 13:02 59.62923 17.94772 136 ft 14 kts
2026-05-04 13:03 59.63044 17.94809 132 ft 21 kts
2026-05-04 13:03 59.63200 17.94870 127 ft 26 kts 10°
2026-05-04 13:03 59.63394 17.94936 121 ft 30 kts 12°
2026-05-04 13:03 59.63618 17.95020 111 ft 34 kts 10°
2026-05-04 13:04 59.63842 17.95102 110 ft 30 kts 10°
2026-05-04 13:04 59.64054 17.95178 108 ft 28 kts 11°
2026-05-04 13:04 59.64230 17.95241 106 ft 24 kts 10°
2026-05-04 13:04 59.64374 17.95087 104 ft 26 kts 304°
2026-05-04 13:05 59.64390 17.94740 102 ft 26 kts 247°
2026-05-04 13:05 59.64295 17.94431 103 ft 27 kts 237°
2026-05-04 13:05 59.64195 17.94120 105 ft 26 kts 238°
2026-05-04 13:05 59.64102 17.93828 110 ft 24 kts 238°
2026-05-04 13:06 59.64013 17.93551 110 ft 24 kts 237°
2026-05-04 13:06 59.64003 17.93238 111 ft 24 kts 292°
2026-05-04 13:06 59.64076 17.92956 111 ft 19 kts 296°
2026-05-04 13:06 59.64163 17.92889 112 ft 13 kts 23°
2026-05-04 13:07 59.64248 17.92969 112 ft 10 kts 25°
2026-05-04 13:07 59.64303 17.93021 112 ft 0 kts 25°